Middletown, OH

10:27 AM EDT on September 26, 2016 (GMT -0400)
Hook Field Municipal

Weather History for KMWO - January, 2014

Change the Weather History Date:

Friday, January 31, 2014

  Actual Average (KDAY) Record (KDAY)
Temperature  
Mean Temperature 34 °F 28 °F  
Max Temperature 37 °F 36 °F 64 °F (1917)
Min Temperature 30 °F 21 °F -10 °F (2004)
Degree Days  
Heating Degree Days 32 37  
Month to date heating degree days 1164  
Since 1 July heating degree days 3323  
Cooling Degree Days 0 0  
Month to date cooling degree days 0  
Year to date cooling degree days 0  
Moisture  
Dew Point 18 °F    
Average Humidity 57    
Maximum Humidity 84    
Minimum Humidity 33    
Precipitation  
Precipitation 0.00 in 0.08 in 1.76 in (1982)
Month to date precipitation 2.71  
Year to date precipitation 2.71  
Snow  
Snow 0.00 in 0.20 in 4.30 in (1951)
Month to date snowfall 7.9  
Since 1 July snowfall 13.4  
Snow Depth -    
Sea Level Pressure  
Sea Level Pressure 30.10 in    
Wind  
Wind Speed 5 mph (SW)    
Max Wind Speed 18 mph    
Max Gust Speed -    
Visibility 9 miles    
Events Snow    
T = Trace of Precipitation, MM = Missing Value Source: NWS Daily Summary

Daily Weather History Graph

Daily Weather History Graph

Search for Another Location

Airport or City:

Trip Planner

Search our weather history database for the weather conditions in past years. The results will help you decide how hot, cold, wet, or windy it might be!

Date:

Astronomy

Jan. 31, 2014 Rise Set
Actual Time 7:45 AM EST 5:56 PM EST
Civil Twilight 7:17 AM EST 6:25 PM EST
Nautical Twilight 6:45 AM EST 6:57 PM EST
Astronomical Twilight 6:13 AM EST 7:28 PM EST
Moon 7:55 AM EST (1/31) 7:19 PM EST (1/31)
Length of Visible Light 11h 07m
Length of Day
10h 10m
New Moon, 1% of the Moon is Illuminated
Jan 31
New Moon
Feb 6
First Quarter
Feb 14
Full
Feb 22
Last Quarter
Mar 1
New

Hourly Weather History & Observations

Time (EST) Temp. Windchill Dew Point Humidity Pressure Visibility Wind Dir Wind Speed Gust Speed Precip Events Conditions
12:15 AM 32.5 °F 23.7 °F 5.9 °F 33% 30.02 in 10.0 mi SW 11.5 mph - N/A   Scattered Clouds
12:35 AM 32.5 °F 24.2 °F 6.6 °F 34% 30.01 in 10.0 mi SW 10.4 mph - N/A   Scattered Clouds
12:55 AM 32.5 °F 24.8 °F 7.9 °F 36% 30.02 in 10.0 mi SW 9.2 mph - N/A   Mostly Cloudy
1:15 AM 32.5 °F 24.8 °F 7.3 °F 35% 30.01 in 10.0 mi SW 9.2 mph - N/A   Overcast
1:35 AM 32.5 °F 24.8 °F 8.8 °F 37% 30.02 in 10.0 mi SW 9.2 mph - N/A   Overcast
1:55 AM 32.5 °F 24.8 °F 8.2 °F 36% 30.02 in 10.0 mi SW 9.2 mph - N/A   Overcast
2:15 AM 32.5 °F 25.5 °F 8.2 °F 36% 30.02 in 10.0 mi SW 8.1 mph - N/A   Overcast
2:35 AM 32.5 °F 25.5 °F 8.6 °F 37% 30.02 in 10.0 mi SW 8.1 mph - N/A   Overcast
2:55 AM 32.5 °F 25.5 °F 9.7 °F 39% 30.03 in 10.0 mi SW 8.1 mph - N/A   Overcast
3:15 AM 32.5 °F 26.2 °F 10.0 °F 39% 30.04 in 10.0 mi SW 6.9 mph - N/A   Overcast
3:35 AM 32.5 °F 27.1 °F 11.1 °F 41% 30.03 in 10.0 mi SW 5.8 mph - N/A   Overcast
3:55 AM 32.5 °F - 11.3 °F 41% 30.03 in 10.0 mi Calm Calm - N/A   Overcast
4:15 AM 32.5 °F - 10.2 °F 39% 30.04 in 10.0 mi Calm Calm - N/A   Overcast
4:35 AM 32.5 °F - 9.3 °F 38% 30.05 in 10.0 mi Calm Calm - N/A   Overcast
4:55 AM 32.5 °F - 9.0 °F 37% 30.05 in 10.0 mi Calm Calm - N/A   Overcast
5:15 AM 32.7 °F - 8.4 °F 36% 30.05 in 10.0 mi Calm Calm - N/A   Overcast
5:35 AM 32.5 °F - 11.3 °F 41% 30.06 in 10.0 mi Calm Calm - N/A   Overcast
5:55 AM 32.5 °F - 9.9 °F 39% 30.07 in 10.0 mi Calm Calm - N/A   Overcast
6:15 AM 32.7 °F - 8.6 °F 37% 30.08 in 10.0 mi Calm Calm - N/A   Overcast
6:35 AM 32.5 °F - 9.1 °F 38% 30.07 in 10.0 mi Calm Calm - N/A   Overcast
6:55 AM 32.5 °F - 9.9 °F 39% 30.08 in 10.0 mi Calm Calm - N/A   Overcast
7:15 AM 32.5 °F - 11.7 °F 42% 30.10 in 10.0 mi Calm Calm - N/A   Overcast
7:35 AM 32.5 °F - 10.4 °F 40% 30.09 in 10.0 mi Calm Calm - N/A   Overcast
7:55 AM 32.5 °F - 9.1 °F 38% 30.09 in 10.0 mi Calm Calm - N/A   Overcast
8:15 AM 32.5 °F 25.5 °F 9.0 °F 37% 30.10 in 10.0 mi SSW 8.1 mph - N/A   Overcast
8:35 AM 33.1 °F 25.5 °F 8.6 °F 36% 30.11 in 10.0 mi SSW 9.2 mph - N/A   Overcast
8:55 AM 35.1 °F 24.5 °F 12.0 °F 39% 30.13 in 10.0 mi SSW 18.4 mph - N/A   Overcast
9:15 AM 32.5 °F 22.7 °F 23.9 °F 70% 30.15 in 7.0 mi SSW 13.8 mph - N/A Snow Light Snow
9:35 AM 30.2 °F 23.4 °F 24.8 °F 80% 30.16 in 1.0 mi SW 6.9 mph - N/A Snow Light Snow
9:55 AM 30.2 °F 24.3 °F 25.7 °F 83% 30.16 in 1.0 mi SSW 5.8 mph - N/A Snow Light Snow
10:15 AM 30.2 °F 23.4 °F 25.7 °F 83% 30.15 in 1.0 mi SSW 6.9 mph - N/A Snow Light Snow
10:35 AM 30.2 °F 24.3 °F 25.7 °F 83% 30.16 in 1.0 mi SSW 5.8 mph - N/A Snow Light Snow
10:55 AM 30.2 °F 25.4 °F 25.7 °F 83% 30.15 in 2.0 mi SSW 4.6 mph - N/A Snow Light Snow
11:15 AM 30.2 °F 24.3 °F 25.7 °F 83% 30.16 in 2.0 mi SSW 5.8 mph - N/A Snow Light Snow
11:35 AM 32.5 °F - 28.2 °F 84% 30.16 in 4.0 mi Calm Calm - N/A   Haze
11:55 AM 32.5 °F - 27.3 °F 81% 30.16 in 10.0 mi Calm Calm - N/A   Overcast
12:15 PM 32.5 °F - 25.7 °F 76% 30.16 in 10.0 mi Calm Calm - N/A   Overcast
12:35 PM 32.5 °F - 25.0 °F 74% 30.15 in 10.0 mi Calm Calm - N/A   Overcast
12:55 PM 33.3 °F - 24.8 °F 71% 30.14 in 10.0 mi Calm Calm - N/A   Overcast
1:15 PM 33.8 °F - 24.4 °F 69% 30.14 in 10.0 mi Calm Calm - N/A   Overcast
1:35 PM 35.1 °F - 25.0 °F 67% 30.13 in 10.0 mi Calm Calm - N/A   Mostly Cloudy
1:55 PM 35.1 °F - 23.4 °F 62% 30.13 in 10.0 mi Calm Calm - N/A   Mostly Cloudy
2:15 PM 36.5 °F - 22.3 °F 56% 30.13 in 10.0 mi Calm Calm - N/A   Overcast
2:35 PM 37.6 °F - 20.7 °F 51% 30.12 in 10.0 mi Calm Calm - N/A   Overcast
2:55 PM 37.6 °F - 20.1 °F 49% 30.12 in 10.0 mi Calm Calm - N/A   Mostly Cloudy
3:15 PM 37.6 °F - 16.3 °F 42% 30.12 in 10.0 mi Calm Calm - N/A   Mostly Cloudy
3:35 PM 37.6 °F - 18.7 °F 47% 30.13 in 10.0 mi Calm Calm - N/A   Overcast
3:55 PM 37.6 °F - 14.0 °F 38% 30.14 in 10.0 mi Calm Calm - N/A   Overcast
4:15 PM 37.6 °F - 15.4 °F 41% 30.13 in 10.0 mi Calm Calm - N/A   Mostly Cloudy
4:35 PM 37.6 °F 35.1 °F 19.2 °F 48% 30.14 in 10.0 mi ENE 3.5 mph - N/A   Mostly Cloudy
4:55 PM 35.4 °F 30.5 °F 22.1 °F 58% 30.14 in 10.0 mi NNE 5.8 mph - N/A   Overcast
5:15 PM 35.1 °F 29.3 °F 21.9 °F 59% 30.14 in 10.0 mi NE 6.9 mph - N/A   Scattered Clouds
5:35 PM 35.1 °F 30.1 °F 25.9 °F 69% 30.14 in 10.0 mi ENE 5.8 mph - N/A   Mostly Cloudy
5:55 PM 35.1 °F 32.2 °F 24.6 °F 66% 30.13 in 10.0 mi NE 3.5 mph - N/A   Mostly Cloudy
6:15 PM 35.1 °F 32.2 °F 24.6 °F 66% 30.13 in 10.0 mi NE 3.5 mph - N/A   Scattered Clouds
6:35 PM 35.1 °F 32.2 °F 24.8 °F 66% 30.13 in 10.0 mi NNE 3.5 mph - N/A   Clear
6:55 PM 35.1 °F 31.0 °F 24.8 °F 66% 30.13 in 10.0 mi NNE 4.6 mph - N/A   Clear
7:15 PM 35.1 °F 31.0 °F 25.0 °F 67% 30.14 in 10.0 mi NNE 4.6 mph - N/A   Mostly Cloudy
7:35 PM 32.7 °F - 24.1 °F 71% 30.14 in 10.0 mi Calm Calm - N/A   Scattered Clouds
7:55 PM 33.6 °F - 24.1 °F 68% 30.14 in 10.0 mi Calm Calm - N/A   Mostly Cloudy
8:15 PM 32.5 °F - 25.7 °F 76% 30.13 in 10.0 mi Calm Calm - N/A   Overcast
8:35 PM 32.5 °F - 25.9 °F 76% 30.13 in 10.0 mi Calm Calm - N/A   Overcast
8:55 PM 32.5 °F - 25.7 °F 76% 30.13 in 10.0 mi Calm Calm - N/A   Overcast
9:15 PM 32.5 °F 29.3 °F 25.3 °F 75% 30.12 in 10.0 mi NNE 3.5 mph - N/A   Overcast
9:35 PM 32.5 °F - 25.7 °F 76% 30.12 in 10.0 mi Calm Calm - N/A   Overcast
9:55 PM 32.5 °F - 25.7 °F 76% 30.11 in 10.0 mi Calm Calm - N/A   Overcast
10:15 PM 32.5 °F - 26.4 °F 78% 30.11 in 10.0 mi Calm Calm - N/A   Overcast
10:35 PM 32.5 °F - 26.4 °F 78% 30.10 in 10.0 mi Calm Calm - N/A   Overcast
10:55 PM 32.5 °F - 25.3 °F 75% 30.11 in 10.0 mi Calm Calm - N/A   Overcast
11:15 PM 32.5 °F - 25.5 °F 75% 30.11 in 10.0 mi Calm Calm - N/A   Overcast
11:35 PM 32.5 °F - 26.4 °F 78% 30.10 in 10.0 mi Calm Calm - N/A   Overcast
11:55 PM 32.7 °F - 25.2 °F 74% 30.10 in 10.0 mi Calm Calm - N/A   Overcast